User: anonymous   Login
Location: *
(51.1248°S, 108.4023°W)
Time: 09:15:13
(UTC+00:00)
Language:

CZ-4B R/B - Orbit

View from above orbital plane
View from above orbital plane
View from above satellite
View from above satellite

Ground track
Ground track

The orbit data is extracted from the following two-line orbital elements,

1 29093U 06015B   21265.59900610  .00007083  00000-0  12175-3 0  9998
2 29093  97.6275 103.5621 0050192  84.8604 275.8373 15.50033243857973
Epoch (UTC): 22 September 2021 14:22:34
Eccentricity: 0.0050192
inclination: 97.6275°
perigee height: 382 km
apogee height: 451 km
right ascension of ascending node: 103.5621°
argument of perigee: 84.8604°
revolutions per day: 15.50033243
mean anomaly at epoch: 275.8373°
orbit number at epoch: 85797

The dashed part of the orbit path shows where the satellite is in the earth's shadow,  

DLR